• în Republica Moldova
  • Lista ţărilor
  • Pe 7 zile
  • Temperatura apei
  • Hartă satelitară
  • Meteo pe hartă
  • Widget-uri
  • user-avatar
    Intrare

    Meteo pe oră la Yulara

    Astăzi, 24 Septembrie, Duminică

    Timp Temperatura Precipitaţii Vânt Presiune Umiditate
    00:00 +25°C° 0 mm 4 m/s 714 mmHg 24%
    01:00 +23°C° 0 mm 4 m/s 714 mmHg 25%
    02:00 +22°C° 0 mm 4 m/s 714 mmHg 26%
    03:00 +21°C° 0 mm 3 m/s 714 mmHg 28%
    04:00 +20°C° 0 mm 3 m/s 714 mmHg 29%
    05:00 +19°C° 0 mm 2 m/s 714 mmHg 29%
    06:00 +18°C° 0 mm 2 m/s 714 mmHg 30%
    07:00 +21°C° 0 mm 2 m/s 714 mmHg 26%
    08:00 +24°C° 0 mm 2 m/s 715 mmHg 22%
    09:00 +27°C° 0 mm 2 m/s 715 mmHg 19%
    10:00 +29°C° 0 mm 4 m/s 715 mmHg 17%
    11:00 +33°C° 0 mm 6 m/s 714 mmHg 15%
    12:00 +35°C° 0 mm 8 m/s 714 mmHg 13%
    13:00 +35°C° 0 mm 9 m/s 713 mmHg 12%
    14:00 +37°C° 0 mm 10 m/s 712 mmHg 11%
    15:00 +37°C° 0 mm 10 m/s 712 mmHg 12%
    16:00 +35°C° 0 mm 9 m/s 712 mmHg 13%
    17:00 +34°C° 0 mm 8 m/s 712 mmHg 14%
    18:00 +33°C° 0 mm 7 m/s 712 mmHg 15%
    19:00 +32°C° 0 mm 6 m/s 712 mmHg 16%
    20:00 +29°C° 0 mm 6 m/s 712 mmHg 18%
    21:00 +28°C° 0 mm 5 m/s 713 mmHg 19%
    22:00 +27°C° 0 mm 5 m/s 713 mmHg 20%
    23:00 +26°C° 0 mm 5 m/s 713 mmHg 21%

    Mâine, 25 Septembrie, Luni

    Timp Temperatura Precipitaţii Vânt Presiune Umiditate
    00:00 +25°C° 0 mm 5 m/s 713 mmHg 21%
    01:00 +23°C° 0 mm 4 m/s 713 mmHg 21%
    02:00 +22°C° 0 mm 4 m/s 713 mmHg 21%
    03:00 +21°C° 0 mm 4 m/s 712 mmHg 20%
    04:00 +20°C° 0 mm 3 m/s 712 mmHg 21%
    05:00 +19°C° 0 mm 3 m/s 713 mmHg 21%
    06:00 +18°C° 0 mm 2 m/s 713 mmHg 21%
    07:00 +21°C° 0 mm 3 m/s 713 mmHg 18%
    08:00 +26°C° 0 mm 4 m/s 714 mmHg 15%
    09:00 +29°C° 0 mm 5 m/s 714 mmHg 12%
    10:00 +32°C° 0 mm 6 m/s 714 mmHg 10%
    11:00 +34°C° 0 mm 8 m/s 714 mmHg 9%
    12:00 +37°C° 0 mm 10 m/s 714 mmHg 7%
    13:00 +37°C° 0 mm 10 m/s 713 mmHg 7%
    14:00 +38°C° 0 mm 10 m/s 713 mmHg 7%
    15:00 +38°C° 0 mm 11 m/s 712 mmHg 6%
    16:00 +37°C° 0 mm 9 m/s 712 mmHg 7%
    17:00 +35°C° 0 mm 8 m/s 712 mmHg 8%
    18:00 +33°C° 0 mm 7 m/s 712 mmHg 9%
    19:00 +32°C° 0 mm 6 m/s 713 mmHg 11%
    20:00 +29°C° 0 mm 5 m/s 713 mmHg 12%
    21:00 +27°C° 0 mm 5 m/s 713 mmHg 14%
    22:00 +27°C° 0 mm 5 m/s 713 mmHg 15%
    23:00 +26°C° 0 mm 5 m/s 713 mmHg 16%

    Poimâine, 26 Septembrie, Marţi

    Timp Temperatura Precipitaţii Vânt Presiune Umiditate
    00:00 +25°C° 0 mm 5 m/s 713 mmHg 17%
    01:00 +23°C° 0 mm 5 m/s 713 mmHg 19%
    02:00 +23°C° 0 mm 5 m/s 713 mmHg 20%
    03:00 +22°C° 0 mm 5 m/s 713 mmHg 22%
    04:00 +22°C° 0 mm 4 m/s 713 mmHg 24%
    05:00 +21°C° 0 mm 4 m/s 713 mmHg 26%
    06:00 +21°C° 0 mm 4 m/s 713 mmHg 27%
    07:00 +23°C° 0 mm 6 m/s 714 mmHg 25%
    08:00 +27°C° 0 mm 8 m/s 715 mmHg 22%
    09:00 +31°C° 0 mm 9 m/s 715 mmHg 20%
    10:00 +33°C° 0 mm 11 m/s 715 mmHg 18%
    11:00 +36°C° 0 mm 12 m/s 715 mmHg 17%
    12:00 +37°C° 0 mm 13 m/s 715 mmHg 15%
    13:00 +38°C° 0 mm 13 m/s 714 mmHg 15%
    14:00 +38°C° 0 mm 13 m/s 713 mmHg 15%
    15:00 +40°C° 0 mm 14 m/s 713 mmHg 14%
    16:00 +37°C° 0 mm 12 m/s 713 mmHg 16%
    17:00 +36°C° 0 mm 10 m/s 713 mmHg 18%
    18:00 +34°C° 0 mm 9 m/s 713 mmHg 19%
    19:00 +33°C° 0 mm 8 m/s 714 mmHg 22%
    20:00 +30°C° 0 mm 6 m/s 714 mmHg 25%
    21:00 +28°C° 0 mm 5 m/s 715 mmHg 28%
    22:00 +27°C° 0 mm 5 m/s 715 mmHg 29%
    23:00 +26°C° 0 mm 5 m/s 715 mmHg 31%

    27 Septembrie, Miercuri

    Timp Temperatura Precipitaţii Vânt Presiune Umiditate
    00:00 +26°C° 0 mm 4 m/s 715 mmHg 33%
    01:00 +25°C° 0 mm 4 m/s 715 mmHg 32%
    02:00 +25°C° 0 mm 4 m/s 715 mmHg 31%
    03:00 +23°C° 0 mm 4 m/s 715 mmHg 30%
    04:00 +22°C° 0 mm 4 m/s 715 mmHg 31%
    05:00 +21°C° 0 mm 5 m/s 715 mmHg 32%
    06:00 +20°C° 0 mm 5 m/s 715 mmHg 32%
    07:00 +20°C° 0,1 mm 5 m/s 716 mmHg 35%
    08:00 +21°C° 0,1 mm 5 m/s 717 mmHg 37%
    09:00 +21°C° 0,1 mm 5 m/s 718 mmHg 39%
    10:00 +20°C° 1 mm 5 m/s 717 mmHg 47%
    11:00 +19°C° 1 mm 4 m/s 717 mmHg 55%
    12:00 +17°C° 1 mm 4 m/s 717 mmHg 63%
    13:00 +17°C° 0,7 mm 4 m/s 717 mmHg 63%
    14:00 +17°C° 0,7 mm 4 m/s 717 mmHg 64%
    15:00 +17°C° 0,7 mm 4 m/s 716 mmHg 64%
    16:00 +17°C° 0,6 mm 3 m/s 717 mmHg 65%
    17:00 +17°C° 0,6 mm 3 m/s 717 mmHg 65%
    18:00 +17°C° 0,6 mm 3 m/s 717 mmHg 66%
    19:00 +16°C° 0,2 mm 2 m/s 718 mmHg 67%
    20:00 +16°C° 0,2 mm 1 m/s 718 mmHg 68%
    21:00 +16°C° 0,2 mm 1 m/s 719 mmHg 69%
    22:00 +16°C° 0,1 mm 1 m/s 719 mmHg 68%
    23:00 +16°C° 0,1 mm 2 m/s 718 mmHg 66%

    28 Septembrie, Joi

    Timp Temperatura Precipitaţii Vânt Presiune Umiditate
    00:00 +15°C° 0,1 mm 2 m/s 718 mmHg 65%
    01:00 +14°C° 0,2 mm 3 m/s 718 mmHg 65%
    02:00 +14°C° 0,2 mm 3 m/s 718 mmHg 64%
    03:00 +14°C° 0,2 mm 3 m/s 717 mmHg 64%
    04:00 +14°C° 0,1 mm 4 m/s 718 mmHg 65%
    05:00 +14°C° 0,1 mm 4 m/s 718 mmHg 67%
    06:00 +14°C° 0,1 mm 5 m/s 718 mmHg 69%
    07:00 +14°C° 0,1 mm 5 m/s 719 mmHg 67%
    08:00 +15°C° 0,1 mm 6 m/s 719 mmHg 64%
    09:00 +16°C° 0,1 mm 6 m/s 720 mmHg 61%
    10:00 +17°C° 0 mm 6 m/s 719 mmHg 57%
    11:00 +20°C° 0 mm 6 m/s 719 mmHg 52%
    12:00 +21°C° 0 mm 5 m/s 719 mmHg 48%
    13:00 +22°C° 0 mm 5 m/s 718 mmHg 46%
    14:00 +22°C° 0 mm 5 m/s 718 mmHg 45%
    15:00 +23°C° 0 mm 5 m/s 717 mmHg 43%
    16:00 +23°C° 0 mm 5 m/s 717 mmHg 46%
    17:00 +22°C° 0 mm 5 m/s 717 mmHg 48%
    18:00 +21°C° 0 mm 5 m/s 717 mmHg 50%
    19:00 +21°C° 0 mm 5 m/s 718 mmHg 53%
    20:00 +20°C° 0 mm 5 m/s 718 mmHg 57%
    21:00 +19°C° 0 mm 5 m/s 718 mmHg 60%
    22:00 +17°C° 0 mm 5 m/s 718 mmHg 61%
    23:00 +17°C° 0 mm 5 m/s 718 mmHg 63%

    29 Septembrie, Vineri

    Timp Temperatura Precipitaţii Vânt Presiune Umiditate
    00:00 +16°C° 0 mm 5 m/s 717 mmHg 64%
    01:00 +16°C° 0 mm 5 m/s 717 mmHg 65%
    02:00 +16°C° 0 mm 5 m/s 717 mmHg 66%
    03:00 +16°C° 0 mm 5 m/s 717 mmHg 67%
    04:00 +15°C° 0 mm 6 m/s 717 mmHg 68%
    05:00 +15°C° 0 mm 6 m/s 717 mmHg 69%
    06:00 +15°C° 0 mm 6 m/s 717 mmHg 70%
    07:00 +17°C° 0 mm 7 m/s 718 mmHg 65%
    08:00 +18°C° 0 mm 7 m/s 718 mmHg 60%
    09:00 +21°C° 0 mm 7 m/s 719 mmHg 55%
    10:00 +22°C° 0,1 mm 7 m/s 718 mmHg 50%
    11:00 +24°C° 0,1 mm 7 m/s 718 mmHg 46%
    12:00 +27°C° 0,1 mm 7 m/s 718 mmHg 42%
    13:00 +28°C° 0 mm 7 m/s 717 mmHg 40%
    14:00 +29°C° 0 mm 8 m/s 717 mmHg 38%
    15:00 +31°C° 0 mm 8 m/s 716 mmHg 35%
    16:00 +28°C° 0,4 mm 8 m/s 716 mmHg 43%
    17:00 +26°C° 0,4 mm 9 m/s 716 mmHg 51%
    18:00 +23°C° 0,4 mm 9 m/s 716 mmHg 59%
    19:00 +22°C° 0,5 mm 9 m/s 717 mmHg 62%
    20:00 +21°C° 0,5 mm 9 m/s 717 mmHg 64%
    21:00 +19°C° 0,5 mm 9 m/s 718 mmHg 66%
    22:00 +18°C° 0,5 mm 9 m/s 718 mmHg 70%
    23:00 +17°C° 0,5 mm 8 m/s 717 mmHg 73%
    Arată mai mult